Regional Weather Roundup
Issued by NWS Raleigh/Durham, NC

Home | Current Version | Previous Version | Text Only | Print | Product List | Glossary On
Versions: 1 2 3 4 5 6 7 8 9 10 11 12 13 14 15 16 17 18 19 20 21 22 23 24 25 26 27 28 29 30 31 32 33 34 35 36 37 38 39 40 41 42 43 44 45 46 47 48 49 50
000
ASUS42 KRAH 300010
RWRRAH
NORTH CAROLINA WEATHER ROUNDUP
NATIONAL WEATHER SERVICE RALEIGH NC
800 PM EDT WED JUL 29 2015

NOTE: "FAIR" INDICATES FEW OR NO CLOUDS BELOW 12,000 FEET WITH NO
SIGNIFICANT WEATHER AND/OR OBSTRUCTIONS TO VISIBILITY.

NCZ001-053-055-056-065-067-300100-
WESTERN NORTH CAROLINA

CITY           SKY/WX    TMP DP  RH WIND       PRES   REMARKS
ASHEVILLE      PTCLDY    78  72  81 NW5       30.06R
JEFFERSON      MOCLDY    77  66  68 CALM      30.12R
MORGANTON      PTCLDY    85  73  67 CALM      30.05R
HICKORY        PTCLDY    85  73  67 E5        30.00R
RUTHERFORDTON  PTCLDY    85  75  73 CALM      29.99R
MOUNT AIRY     MOCLDY    82  76  82 E3        30.03R
BOONE          CLOUDY    73  71  95 SE3       30.13R
$$

NCZ021-022-025-041-071-084-088-300100-
CENTRAL NORTH CAROLINA

CITY           SKY/WX    TMP DP  RH WIND       PRES   REMARKS
CHARLOTTE      MOCLDY    83  71  67 W7        29.98R
GREENSBORO     CLOUDY    79  71  76 SE10      29.98R
WINSTON-SALEM  MOCLDY    80  75  84 CALM      30.01R
RALEIGH-DURHAM MOCLDY    86  70  58 SE5       29.97R
FORT BRAGG     CLEAR     88  68  51 E6        29.94R
FAYETTEVILLE   CLEAR     87  70  56 E5        29.94R
BURLINGTON     MOCLDY    84  74  71 SW3       29.97R
LAURINBURG     CLEAR     90  65  43 E7        29.94R
$$

NCZ011-015-027-028-043-044-047-080-103-300100-
NORTHEASTERN NORTH CAROLINA

CITY           SKY/WX    TMP DP  RH WIND       PRES   REMARKS
ROCKY MT-WILSO PTCLDY    86  69  56 SE3       29.96R
GREENVILLE     PTCLDY    84  72  65 SE8       29.98R
WASHINGTON     CLEAR     81  72  74 SE6       29.97R
ELIZABETH CITY CLEAR     81  71  71 SE12      29.98S
MANTEO         PTCLDY    80  71  74 SE8       29.98F
CAPE HATTERAS  PTCLDY    82  73  74 E8        29.97F
$$

NCZ078-087-090-091-093-098-101-300100-
SOUTHEASTERN NORTH CAROLINA

CITY           SKY/WX    TMP DP  RH WIND       PRES   REMARKS
LUMBERTON      CLEAR     90  69  50 SE8       29.93R
GOLDSBORO      CLEAR     86  70  58 E6        29.94R
KINSTON        CLEAR     84  70  61 SE7       29.97R
KENANSVILLE    CLEAR     83  69  63 CALM      29.96R
NEW BERN       CLEAR     82  70  66 E9        29.97S
CHERRY POINT   PTCLDY    82  71  69 E7        29.97S
BEAUFORT       MOCLDY    81  74  79 NE8G16    29.95F
JACKSONVILLE   CLEAR     84  71  65 E10       29.95R
WILMINGTON     PTCLDY    82  73  74 E10       29.95R
$$



USA.gov is the U.S. government's official web portal to all federal, state and local government web resources and services.